Weather History for Cape Girardeau, MO

Change the Weather History Date:

Wednesday, November 7, 2012

  Actual Average Record
Temperature  
Mean Temperature 42 °F 50 °F  
Max Temperature 51 °F 62 °F 81 °F (1999)
Min Temperature 32 °F 39 °F 18 °F (1993)
Degree Days  
Heating Degree Days 23 15  
Month to date heating degree days 131 96  
Since 1 July heating degree days 476 399  
Cooling Degree Days 0 0  
Month to date cooling degree days 0 0  
Year to date cooling degree days 1784 1451  
Moisture  
Dew Point 38 °F    
Average Humidity 81    
Maximum Humidity 100    
Minimum Humidity 61    
Precipitation  
Precipitation 0.01 in 0.13 in 2.41 in (1996)
Month to date precipitation 0.01 0.93  
Year to date precipitation 23.97 39.05  
Sea Level Pressure  
Sea Level Pressure 30.06 in    
Wind  
Wind Speed 7 mph (NW)    
Max Wind Speed 21 mph    
Max Gust Speed 26 mph    
Visibility 10 miles    
Events      
T = Trace of Precipitation, MM = Missing Value Source: NWS Daily Summary

Daily Weather History Graph

Daily Weather History Graph

Search for Another Location

Airport:

Trip Planner

Search our weather history database for the weather conditions in past years. The results will help you decide how hot, cold, wet, or windy it might be!

Date:

Astronomy

Nov. 07, 2012 Rise Set
Actual Time 6:29 AM CST 4:54 PM CST
Civil Twilight 6:02 AM CST 5:21 PM CST
Nautical Twilight 5:31 AM CST 5:52 PM CST
Astronomical Twilight 5:00 AM CST 6:23 PM CST
Moon No Moon Rise 12:55 PM CST (11/7)
Length of Visible Light 11h 19m
Length of Day
10h 24m
Last Quarter, 43% of the Moon is Illuminated
Nov 7
Last Quarter
Nov 13
New
Nov 20
First Quarter
Nov 28
Full
Dec 6
Last Quarter

Hourly Weather History & Observations

Time (CST) Temp. Windchill Dew Point Humidity Pressure Visibility Wind Dir Wind Speed Gust Speed Precip Events Conditions
12:53 AM 44.1 °F - 41.0 °F 89% 29.96 in 10.0 mi Calm Calm - 0.00 in   Overcast
1:53 AM 43.0 °F - 41.0 °F 93% 29.96 in 8.0 mi Calm Calm - N/A   Overcast
2:53 AM 45.0 °F 41.2 °F 42.1 °F 90% 29.95 in 10.0 mi West 6.9 mph - N/A   Overcast
3:53 AM 43.0 °F 39.5 °F 39.9 °F 89% 29.95 in 10.0 mi West 5.8 mph - N/A   Overcast
4:53 AM 43.0 °F 38.8 °F 39.9 °F 89% 29.96 in 10.0 mi West 6.9 mph - N/A   Overcast
5:53 AM 43.0 °F 40.3 °F 39.9 °F 89% 29.97 in 10.0 mi WSW 4.6 mph - N/A   Overcast
6:53 AM 43.0 °F 39.5 °F 39.9 °F 89% 29.99 in 10.0 mi West 5.8 mph - N/A   Overcast
7:53 AM 44.1 °F 41.5 °F 41.0 °F 89% 30.01 in 10.0 mi West 4.6 mph - N/A   Overcast
8:53 AM 48.0 °F - 39.0 °F 71% 30.02 in 10.0 mi NW 8.1 mph - N/A   Overcast
9:53 AM 48.0 °F - 37.0 °F 66% 30.04 in 10.0 mi North 19.6 mph 25.3 mph N/A   Overcast
10:53 AM 48.9 °F - 39.0 °F 69% 30.06 in 10.0 mi NNW 18.4 mph - N/A   Overcast
11:53 AM 51.1 °F - 39.0 °F 63% 30.05 in 10.0 mi North 18.4 mph 24.2 mph 0.00 in   Scattered Clouds
12:53 PM 48.9 °F - 39.0 °F 69% 30.07 in 10.0 mi North - - 0.01 in   Unknown
1:53 PM 48.9 °F - 37.0 °F 64% 30.07 in 10.0 mi North 13.8 mph - N/A   Overcast
2:53 PM 48.9 °F - 37.9 °F 66% 30.09 in 10.0 mi NNW 10.4 mph - N/A   Overcast
3:53 PM 48.9 °F - 37.0 °F 64% 30.11 in 10.0 mi NNW 10.4 mph - N/A   Overcast
4:53 PM 48.0 °F - 36.0 °F 63% 30.12 in 10.0 mi NNW 6.9 mph - N/A   Overcast
5:53 PM 48.0 °F - 37.0 °F 66% 30.14 in 10.0 mi NNW 6.9 mph - N/A   Overcast
7:53 PM 41.0 °F - 36.0 °F 82% 30.17 in 10.0 mi Calm Calm - N/A   Scattered Clouds
8:53 PM 39.9 °F - 36.0 °F 86% 30.19 in 10.0 mi Calm Calm - N/A   Scattered Clouds
9:53 PM 36.0 °F - 33.1 °F 89% 30.19 in 10.0 mi Calm Calm - N/A   Clear
10:53 PM 34.0 °F - 33.1 °F 96% 30.19 in 9.0 mi Calm Calm - N/A   Clear
11:53 PM 35.1 °F - 30.9 °F 85% 30.20 in 9.0 mi Calm Calm - N/A   Clear